EW5212 Weather Reports


time (UTC)temp
F
wind
direction
speed
knots
gust
knots
rain 1hr
in
rain 24hr
in
rain mn
in
humidity
%
barometer
mb
20260906221515 81 0.0 0.0 0.00 0.00 0.00 75 1015.3
20260906220515 81 0.0 0.0 0.00 0.00 0.00 71 1015.3
20260906215515 80 0.0 0.9 0.00 0.00 0.00 74 1015.1
20260906214515 81 0.0 0.0 0.00 0.00 0.00 72 1015.1
20260906213515 82 0.0 0.9 0.00 0.00 0.00 70 1015.1
20260906212516 80 0.0 0.0 0.00 0.00 0.00 72 1015.0
20260906211515 79 0.0 1.7 0.00 0.00 0.00 72 1015.2
20260906210517 81 0.0 0.9 0.00 0.00 0.00 75 1015.2
20260906205517 79 0.0 0.0 0.00 0.00 0.00 75 1015.2
20260906204517 80 0.0 0.0 0.00 0.00 0.00 74 1015.2
20260906203517 81 45 0.9 1.7 0.00 0.00 0.00 66 1015.3
20260906202517 82 45 0.9 1.7 0.00 0.00 0.00 70 1015.3
20260906201517 83 0.0 0.9 0.00 0.00 0.00 66 1015.2
20260906200517 83 45 0.9 1.7 0.00 0.00 0.00 68 1015.2
20260906195517 82 0.0 1.7 0.00 0.00 0.00 65 1015.2
20260906194535 82 45 0.9 2.6 0.00 0.00 0.00 66 1015.2
20260906193517 82 315 0.9 1.7 0.00 0.00 0.00 67 1015.1
20260906192537 82 0.0 2.6 0.00 0.00 0.00 68 1015.1
20260906191517 81 45 0.9 1.7 0.00 0.00 0.00 70 1015.2
20260906190517 82 0.0 1.7 0.00 0.00 0.00 69 1015.3
20260906185517 82 0 0.9 2.6 0.00 0.00 0.00 72 1015.4
20260906184517 82 0 0.9 1.7 0.00 0.00 0.00 72 1015.6
20260906183537 82 0.0 0.9 0.00 0.01 0.00 70 1015.5
20260906182517 82 338 0.9 1.7 0.00 0.01 0.00 70 1015.6
20260906181517 82 0.0 0.9 0.00 0.01 0.00 70 1015.7
20260906180537 82 315 0.9 1.7 0.00 0.01 0.00 67 1015.6
20260906175537 83 45 0.9 2.6 0.00 0.01 0.00 66 1015.6
20260906174517 83 45 0.9 2.6 0.00 0.01 0.00 68 1015.5
20260906173517 83 45 1.7 3.5 0.00 0.01 0.00 64 1015.5
20260906172517 83 0.0 1.7 0.00 0.01 0.00 69 1015.6
20260906171517 82 45 0.9 3.5 0.00 0.01 0.00 66 1015.6
20260906170517 83 45 0.9 2.6 0.00 0.01 0.00 67 1015.8
20260906165517 83 0.0 1.7 0.00 0.01 0.00 70 1015.8
20260906164537 83 68 0.9 1.7 0.00 0.02 0.00 68 1015.8
20260906163517 82 0.0 0.9 0.00 0.04 0.00 73 1015.9
20260906162537 81 0.0 1.7 0.00 0.47 0.00 73 1016.0
20260906161517 81 23 0.9 1.7 0.00 0.86 0.00 71 1016.0
20260906160517 81 0.0 0.9 0.00 0.90 0.00 74 1016.2
20260906155517 81 68 0.9 1.7 0.00 0.90 0.00 71 1016.2
20260906154517 80 45 0.9 2.6 0.00 0.90 0.00 74 1016.3
20260906153517 80 45 0.9 1.7 0.00 0.90 0.00 70 1016.3
20260906152517 80 45 0.9 1.7 0.00 0.90 0.00 76 1016.3
20260906151516 80 0.0 1.7 0.00 0.90 0.00 75 1016.1
20260906150516 79 0.0 1.7 0.00 0.90 0.00 77 1016.1
20260906145537 79 315 0.9 0.9 0.00 0.90 0.00 78 1016.0
20260906144516 79 0.0 1.7 0.00 0.90 0.00 79 1015.9
20260906143516 78 0.0 1.7 0.00 0.90 0.00 80 1015.9
20260906142517 78 0.0 1.7 0.00 0.90 0.00 82 1015.9
20260906141516 78 0.0 0.9 0.00 0.90 0.00 82 1015.9
20260906140516 77 0.0 1.7 0.00 0.90 0.00 86 1015.8
20260906135517 75 0.0 0.9 0.00 0.90 0.00 88 1015.7
20260906134517 75 0.0 0.0 0.00 0.90 0.00 88 1015.6
20260906133517 74 0.0 0.9 0.00 0.90 0.00 93 1015.5
20260906132516 73 0.0 0.0 0.00 0.90 0.00 95 1015.3
20260906131516 72 0.0 0.9 0.00 0.90 0.00 100 1015.3
20260906130537 70 0.0 0.0 0.00 0.90 0.00 100 1015.4
20260906125537 69 0.0 0.0 0.00 0.90 0.00 100 1015.4
20260906124517 68 0.0 0.0 0.00 0.90 0.00 100 1015.6
20260906123516 68 0.0 0.0 0.00 0.90 0.00 100 1015.6
20260906122536 68 0.0 0.0 0.00 0.90 0.00 100 1015.4
20260906121516 68 0.0 0.0 0.00 0.90 0.00 100 1015.2
20260906120516 68 0.0 0.0 0.00 0.90 0.00 100 1015.1
20260906115516 68 0.0 0.0 0.00 0.90 0.00 100 1015.0
20260906114516 68 0.0 0.0 0.00 0.90 0.00 100 1014.9
20260906113516 68 0.0 0.0 0.00 0.90 0.00 100 1014.7
20260906112516 68 0.0 0.0 0.00 0.90 0.00 100 1014.6
20260906111516 68 0.0 0.0 0.00 0.90 0.00 100 1014.4
20260906110516 68 0.0 0.0 0.00 0.90 0.00 100 1014.5
20260906105517 69 0.0 0.0 0.00 0.90 0.00 100 1014.3
20260906104516 69 0.0 0.0 0.00 0.90 0.00 100 1014.1
20260906103516 69 0.0 0.0 0.00 0.90 0.00 100 1014.1
20260906102516 69 0.0 0.0 0.00 0.90 0.00 100 1014.0
20260906101516 69 0.0 0.0 0.00 0.90 0.00 100 1013.8
20260906100536 69 0.0 0.0 0.00 0.90 0.00 100 1013.6
20260906095517 69 0.0 0.0 0.00 0.90 0.00 100 1013.5
20260906094517 70 0.0 0.0 0.00 0.90 0.00 100 1013.4
20260906093517 70 0.0 0.0 0.00 0.90 0.00 100 1013.4
20260906092516 70 0.0 0.0 0.00 0.90 0.00 100 1013.3
20260906091516 70 0.0 0.0 0.00 0.90 0.00 100 1013.2
20260906090516 70 0.0 0.0 0.00 0.91 0.00 100 1013.1
20260906085518 70 0.0 0.0 0.00 0.91 0.00 100 1013.1
20260906084516 70 0.0 0.0 0.00 0.91 0.00 100 1013.1
20260906083516 71 0.0 0.0 0.00 0.91 0.00 100 1013.1
20260906082517 71 0.0 0.0 0.00 0.91 0.00 100 1013.1
20260906081536 71 0.0 0.0 0.00 0.91 0.00 100 1013.0
20260906080516 71 0.0 0.0 0.00 0.91 0.00 100 1013.1
20260906075516 71 0.0 0.0 0.00 0.91 0.00 100 1012.8
20260906074536 71 0.0 0.0 0.00 0.91 0.00 100 1012.8
20260906073516 71 0.0 0.0 0.00 0.91 0.00 100 1012.7
20260906072516 71 0.0 0.0 0.00 0.91 0.00 100 1012.8
20260906071516 71 0.0 0.0 0.00 0.91 0.00 100 1012.8
20260906070536 71 0.0 0.0 0.00 0.91 0.00 100 1012.7
20260906065516 71 0.0 0.0 0.00 0.91 0.00 100 1012.7
20260906064516 71 0.0 0.0 0.00 0.91 0.00 100 1012.8
20260906063517 71 0.0 0.0 0.00 0.91 0.00 100 1012.8
20260906062517 71 0.0 0.0 0.00 0.91 0.00 100 1012.8
20260906061536 71 0.0 0.0 0.00 0.91 0.00 100 1012.9
20260906060536 71 0.0 0.9 0.00 0.91 0.00 100 1013.0
20260906055516 71 0.0 0.0 0.00 0.91 0.00 100 1012.9
20260906054516 71 0.0 0.0 0.00 0.91 0.00 100 1013.1
20260906053516 71 0.0 0.9 0.00 0.91 0.00 100 1013.1
20260906052516 71 0.0 0.0 0.00 0.91 0.00 100 1013.2
20260906051516 71 0.0 0.0 0.00 0.91 0.00 100 1013.3
20260906050516 71 0.0 0.0 0.00 0.91 0.00 100 1013.3
20260906045516 71 0.0 0.0 0.00 0.91 0.00 100 1013.2
20260906044516 71 0.0 0.0 0.00 0.91 0.00 100 1013.3
20260906043516 71 0.0 0.0 0.00 0.91 0.00 100 1013.4
20260906042516 71 0.0 0.0 0.00 0.91 0.00 100 1013.4
20260906041516 71 0.0 0.0 0.00 0.91 0.00 100 1013.4
20260906040516 70 0.0 0.0 0.00 0.91 0.00 100 1013.3
20260906035537 70 0.0 0.0 0.00 0.91 0.91 100 1013.3
20260906034515 70 0.0 0.0 0.00 0.91 0.91 100 1013.4
20260906033516 70 0.0 0.0 0.00 0.91 0.91 100 1013.4
20260906032516 70 0.0 0.0 0.00 0.91 0.91 100 1013.3
20260906031515 71 0.0 0.0 0.00 0.91 0.91 100 1013.3
20260906030515 71 0.0 0.0 0.00 0.91 0.91 100 1013.2
20260906025516 71 0.0 0.0 0.00 0.91 0.91 100 1013.2
20260906024516 71 0.0 0.0 0.00 0.91 0.91 100 1013.3
20260906023515 72 0.0 0.0 0.00 0.91 0.91 100 1013.3
20260906022516 72 0.0 0.0 0.00 0.91 0.91 99 1013.5
20260906021515 72 0.0 0.0 0.00 0.91 0.91 99 1013.3
20260906020515 72 0.0 0.0 0.00 0.91 0.91 99 1013.4
20260906015516 73 0.0 0.0 0.00 0.91 0.91 99 1013.2
20260906014515 73 0.0 0.0 0.00 0.91 0.91 99 1013.3
20260906013516 73 0.0 0.0 0.00 0.91 0.91 99 1013.0
20260906012515 73 0.0 0.0 0.00 0.91 0.91 99 1013.0
20260906011515 73 0.0 0.0 0.00 0.91 0.91 99 1012.9
20260906010536 74 0.0 0.0 0.00 0.91 0.91 99 1012.8
20260906005515 74 0.0 0.0 0.00 0.91 0.91 99 1012.6
20260906004537 74 0.0 0.9 0.00 0.91 0.91 99 1012.3
20260906003515 74 0.0 0.0 0.00 0.91 0.91 99 1012.3
20260906002535 74 0.0 0.0 0.00 0.91 0.91 99 1012.2
20260906001515 74 0.0 0.0 0.00 0.91 0.91 98 1012.1
20260906000515 75 0.0 0.0 0.00 0.91 0.91 98 1011.8
20260905235515 74 0.0 0.0 0.00 0.91 0.91 98 1011.7
20260905234515 75 0.0 0.0 0.00 0.91 0.91 97 1011.7
20260905233516 75 0.0 0.0 0.00 0.91 0.91 97 1011.6
20260905232515 75 0.0 0.0 0.00 0.91 0.91 97 1011.5
20260905231515 76 0.0 0.0 0.00 0.91 0.91 96 1011.3
20260905230515 76 0.0 0.0 0.00 0.92 0.91 95 1011.6
20260905225615 77 0.0 0.0 0.00 0.92 0.91 95 1012.0
20260905224516 78 0.0 0.0 0.00 0.92 0.91 92 1012.1
20260905223515 79 0.0 0.0 0.00 0.94 0.91 89 1011.9
20260905222536 79 0.0 0.0 0.00 0.94 0.91 92 1012.0